This is the latest recevied weather packets stored in our database for station/object OK2ILA-1. If no packets are shown the sender has not sent any weather packets the latest 1 day(s).
| Time | Temp. | Humidity | Pressure | Rain* | Wind** | Luminosity | Snow |
|---|---|---|---|---|---|---|---|
| 1777984738 | 26.11° C | 100% | 1008.6 hPa | 0 mm | 6.71 m/s, 181° | - | - |
| 1777984018 | 26.11° C | 100% | 1008.6 hPa | 0 mm | 3.13 m/s, 177° | - | - |
| 1777983297 | 25.56° C | 100% | 1008.9 hPa | 0 mm | 4.47 m/s, 195° | - | - |
| 1777982576 | 25.56° C | 100% | 1008.9 hPa | 0 mm | 4.02 m/s, 189° | - | - |
| 1777981856 | 26.11° C | 100% | 1009 hPa | 0 mm | 5.81 m/s, 180° | - | - |
| 1777981135 | 25.56° C | 100% | 1009.1 hPa | 0 mm | 4.02 m/s, 189° | - | - |
| 1777980414 | 25° C | 100% | 1009.2 hPa | 0 mm | 5.81 m/s, 181° | - | - |
| 1777979694 | 25.56° C | 100% | 1009.3 hPa | 0 mm | 9.83 m/s, 178° | - | - |
| 1777978973 | 23.89° C | 100% | 1009.3 hPa | 0 mm | 5.36 m/s, 111° | - | - |
| 1777978252 | 24.44° C | 100% | 1009.4 hPa | 0 mm | 5.81 m/s, 178° | - | - |
| 1777977532 | 25° C | 100% | 1009.5 hPa | 0 mm | 8.05 m/s, 160° | - | - |
| 1777976811 | 25° C | 100% | 1009.6 hPa | 0 mm | 5.81 m/s, 175° | - | - |
| 1777976090 | 23.33° C | 100% | 1009.8 hPa | 0 mm | 5.36 m/s, 146° | - | - |
| 1777975370 | 23.33° C | 100% | 1010 hPa | 0 mm | 4.47 m/s, 129° | - | - |
| 1777974649 | 23.33° C | 100% | 1010 hPa | 0 mm | 3.13 m/s, 184° | - | - |
| 1777973928 | 24.44° C | 100% | 1010.2 hPa | 0 mm | 6.26 m/s, 188° | - | - |
| 1777973208 | 23.89° C | 100% | 1010.4 hPa | 0 mm | 6.71 m/s, 150° | - | - |
| 1777972487 | 23.33° C | 100% | 1010.5 hPa | 0 mm | 4.47 m/s, 175° | - | - |
| 1777971766 | 23.33° C | 100% | 1010.5 hPa | 0 mm | 7.15 m/s, 182° | - | - |
| 1777971045 | 23.89° C | 100% | 1010.5 hPa | 0 mm | 6.26 m/s, 154° | - | - |
| 1777970325 | 23.33° C | 100% | 1010.5 hPa | 0 mm | 3.58 m/s, 171° | - | - |
| 1777969604 | 22.78° C | 100% | 1010.5 hPa | 0 mm | 4.92 m/s, 178° | - | - |
| 1777968883 | 22.22° C | 100% | 1010.6 hPa | 0 mm | 7.15 m/s, 143° | - | - |
| 1777968163 | 22.22° C | 100% | 1010.7 hPa | 0 mm | 6.71 m/s, 175° | - | - |
| 1777967442 | 22.22° C | 100% | 1010.8 hPa | 0 mm | 6.26 m/s, 177° | - | - |
* Rain latest hour (hover to see other rain measurements)
** Current wind speed in m/s (hover to see current wind gust speed)